Location: Berlin
(42.3812°N, 71.6370°W)
Time: 13:23:26
(UTC+00:00)

ATLAS 3B R/B - Visible Passes

Search period start: 14 February 2026 00:00
Search period end: 24 February 2026 00:00
Orbit: 936 x 1258 km, 63.8° (Epoch: 13 February)

Date Brightness Start Highest point End Pass type
(mag) Time Alt. Az. Time Alt. Az. Time Alt. Az.
14 Feb 5.9 22:59:21 10° WNW 23:03:44 17° WSW 23:07:58 10° SW visible
15 Feb 5.2 10:57:35 10° SSE 11:03:44 29° ESE 11:10:08 10° NE visible
16 Feb 5.7 10:12:21 10° SE 10:16:45 17° ESE 10:21:18 10° ENE visible
17 Feb 4.0 11:11:44 10° S 11:18:56 53° ESE 11:26:30 10° NE visible
18 Feb 4.8 10:25:16 10° S 10:31:44 33° ESE 10:38:30 10° NE visible
19 Feb 5.4 09:39:38 10° SSE 09:44:42 20° ESE 09:49:56 10° ENE visible
20 Feb 5.8 08:56:36 10° ESE 08:57:51 10° E 08:59:07 10° E visible
20 Feb 3.6 10:39:40 10° SSW 10:47:00 61° ESE 10:54:42 10° NE visible
21 Feb 4.4 09:53:00 10° S 09:59:44 38° ESE 10:06:47 10° NE visible
22 Feb 5.0 09:07:04 10° SSE 09:12:40 23° ESE 09:18:27 10° ENE visible
22 Feb 3.0 10:55:02 10° SW 11:02:34 80° NW 11:10:31 10° NE visible
23 Feb 5.4 08:22:40 10° SE 08:25:45 13° E 08:28:54 10° ENE visible
23 Feb 3.3 10:07:39 10° SSW 10:15:04 69° ESE 10:22:53 10° NE visible
